Weather in Butwal

Nepal     27°41′20″N   83°27′50″E
temp.,
°C
wind,
m/s
gust,
m/s
humid.,
%
clouds,
%
prec.,
mm/h
press.,
hPa
HPBL,
m
7 march, sun
sun723:45+16nne33340 0.0 101440
02:45+15n23410 0.0 101333
05:45+15nne22420 0.0 101332
08:45+24ene12270 0.0 1016313
11:45+28s33190 0.0 10151718
14:45+28s32170 0.0 10121845
17:45+23sse22240 0.0 101237
20:45+19nne33280 0.0 101537
8 march, mon
mon823:45+17nne33340 0.0 101554
02:45+17nne33390 0.0 101461
05:45+16n22410 0.0 101529
08:45+25ese13220 0.0 1018539
11:45+29sse33160 0.0 10161706
14:45+30s34160 0.0 10131706
17:45+25s12250 0.0 101224
20:45+20nne22310 0.0 101527
9 march, tue
tue923:45+19nne43320 0.0 101454
02:45+18nne33350 0.0 101352
05:45+17nne33360 0.0 101434
08:45+26ese11230 0.0 1016330
11:45+30ssw33180 0.0 10151944
14:45+31sw35160 0.0 10122913
17:45+27ssw12210 0.0 101225
20:45+21nne23260 0.0 101429
10 march, wed
wed1023:45+19nne33280 0.0 101452
02:45+19nne33290 0.0 101356
05:45+18n33300 0.0 101333
08:45+27e11200 0.0 1016295
11:45+31s34160 0.0 10152020
14:45+32sw46159 0.0 10112875
17:45+28ssw12194 0.0 101129
20:45+22nne44270 0.0 101372
11 march, thu
thu1123:45+19nne44400 0.0 101476
02:45+19nne43340 0.0 101367
05:45+18nne33310 0.0 101447
08:45+27ne12190 0.0 1016321
11:45+32s34160 0.0 10152251
14:45+33ssw45140 0.0 10112947
17:45+29sw23161 0.0 101245
20:45+22nne33257 0.0 101550